ROA233 SCEL-SCIE

Flight info

Callsign ROA233
Flight time 0h 40m
Altitude 27000
Route GELUS5B GELUS UQ809 ARUNI ARUNI6C
Aircraft A320/M-SDE3FGHIRWY/LB1

Departure

Time 2026-04-19 23:02
Airport Comodoro Arturo Merino Benítez International Airport (SCEL)

Arrival

Time 2026-04-19 23:43
Airport Carriel Sur International Airport (SCIE)
Time Latitude Longitude Altitude Speed Heading
2026-04-19 22:55 -33.39516 -70.79564 1564 ft 0 kts 267°
2026-04-19 22:55 -33.39516 -70.79567 1564 ft 2 kts 267°
2026-04-19 22:55 -33.39518 -70.79637 1564 ft 14 kts 268°
2026-04-19 22:56 -33.39524 -70.79769 1565 ft 16 kts 267°
2026-04-19 22:56 -33.39529 -70.79878 1565 ft 14 kts 267°
2026-04-19 22:56 -33.39527 -70.80001 1565 ft 13 kts 280°
2026-04-19 22:56 -33.39451 -70.80047 1566 ft 15 kts 355°
2026-04-19 22:57 -33.39338 -70.80053 1566 ft 18 kts 358°
2026-04-19 22:57 -33.39206 -70.80060 1566 ft 21 kts 357°
2026-04-19 22:57 -33.39054 -70.80070 1567 ft 23 kts 357°
2026-04-19 22:57 -33.38920 -70.80078 1567 ft 15 kts 357°
2026-04-19 22:58 -33.38803 -70.80084 1567 ft 18 kts 358°
2026-04-19 22:58 -33.38664 -70.80091 1567 ft 21 kts 357°
2026-04-19 22:58 -33.38505 -70.80100 1567 ft 24 kts 358°
2026-04-19 22:58 -33.38351 -70.80106 1566 ft 11 kts 356°
2026-04-19 22:59 -33.38261 -70.80113 1566 ft 14 kts 356°
2026-04-19 22:59 -33.38152 -70.80119 1566 ft 17 kts 358°
2026-04-19 22:59 -33.38023 -70.80126 1566 ft 20 kts 357°
2026-04-19 22:59 -33.37871 -70.80134 1566 ft 23 kts 357°
2026-04-19 23:00 -33.37700 -70.80142 1566 ft 26 kts 358°
2026-04-19 23:00 -33.37530 -70.80151 1566 ft 15 kts 358°
2026-04-19 23:00 -33.37415 -70.80157 1567 ft 18 kts 358°
2026-04-19 23:00 -33.37276 -70.80164 1567 ft 21 kts 358°
2026-04-19 23:01 -33.37170 -70.80171 1567 ft 8 kts 353°
2026-04-19 23:01 -33.37122 -70.80205 1567 ft 9 kts 309°
2026-04-19 23:01 -33.37107 -70.80303 1573 ft 14 kts 259°
2026-04-19 23:01 -33.37185 -70.80375 1573 ft 17 kts 178°
2026-04-19 23:02 -33.37358 -70.80365 1573 ft 47 kts 177°
2026-04-19 23:02 -33.37919 -70.80334 1573 ft 112 kts 177°
2026-04-19 23:02 -33.38873 -70.80285 1576 ft 161 kts 178°
2026-04-19 23:02 -33.40007 -70.80222 2197 ft 160 kts 179°
2026-04-19 23:03 -33.41143 -70.80152 2685 ft 175 kts 179°
2026-04-19 23:03 -33.42455 -70.80077 2988 ft 198 kts 179°
2026-04-19 23:03 -33.43902 -70.79999 3321 ft 223 kts 178°
2026-04-19 23:03 -33.45535 -70.79904 3757 ft 247 kts 177°
2026-04-19 23:04 -33.47286 -70.79896 4552 ft 253 kts 190°
2026-04-19 23:04 -33.48876 -70.80829 5270 ft 267 kts 225°
2026-04-19 23:04 -33.49898 -70.82717 6009 ft 276 kts 247°
2026-04-19 23:04 -33.50527 -70.84907 6883 ft 280 kts 254°
2026-04-19 23:05 -33.51050 -70.87175 7755 ft 284 kts 255°
2026-04-19 23:05 -33.51599 -70.89463 8642 ft 288 kts 253°
2026-04-19 23:05 -33.52218 -70.91765 9502 ft 292 kts 252°
2026-04-19 23:05 -33.52911 -70.94073 10344 ft 298 kts 250°
2026-04-19 23:06 -33.53968 -70.96319 10674 ft 323 kts 233°
2026-04-19 23:06 -33.55606 -70.98234 11225 ft 336 kts 219°
2026-04-19 23:06 -33.57640 -70.99696 11942 ft 346 kts 209°
2026-04-19 23:06 -33.59812 -71.00987 12705 ft 351 kts 210°
2026-04-19 23:07 -33.62006 -71.02314 13467 ft 355 kts 211°
2026-04-19 23:07 -33.64221 -71.03667 14199 ft 359 kts 211°
2026-04-19 23:07 -33.66460 -71.05039 14907 ft 363 kts 212°
2026-04-19 23:07 -33.68723 -71.06421 15605 ft 367 kts 212°
2026-04-19 23:08 -33.71008 -71.07814 16285 ft 370 kts 212°
2026-04-19 23:08 -33.73317 -71.09221 16924 ft 374 kts 213°
2026-04-19 23:08 -33.75650 -71.10645 17571 ft 378 kts 213°
2026-04-19 23:08 -33.78003 -71.12080 18179 ft 381 kts 214°
2026-04-19 23:09 -33.80380 -71.13528 18835 ft 384 kts 213°
2026-04-19 23:09 -33.82773 -71.14982 19453 ft 387 kts 214°
2026-04-19 23:09 -33.85183 -71.16451 20067 ft 390 kts 214°
2026-04-19 23:09 -33.87610 -71.17929 20681 ft 392 kts 214°
2026-04-19 23:10 -33.90076 -71.19437 20994 ft 404 kts 214°
2026-04-19 23:10 -33.92594 -71.20985 21117 ft 419 kts 214°
2026-04-19 23:10 -33.95266 -71.22630 21247 ft 432 kts 214°
2026-04-19 23:10 -33.97987 -71.24302 21417 ft 443 kts 214°
2026-04-19 23:11 -34.00756 -71.25997 21760 ft 449 kts 214°
2026-04-19 23:11 -34.03549 -71.27700 22204 ft 452 kts 214°
2026-04-19 23:11 -34.06328 -71.29399 22616 ft 454 kts 214°
2026-04-19 23:11 -34.09149 -71.31128 23053 ft 456 kts 214°
2026-04-19 23:12 -34.11980 -71.32867 23496 ft 458 kts 214°
2026-04-19 23:12 -34.14824 -71.34613 23902 ft 460 kts 215°
2026-04-19 23:12 -34.17690 -71.36374 24303 ft 462 kts 215°
2026-04-19 23:12 -34.20567 -71.38143 24675 ft 464 kts 215°
2026-04-19 23:13 -34.23450 -71.39917 25023 ft 466 kts 215°
2026-04-19 23:13 -34.26347 -71.41704 25336 ft 469 kts 215°
2026-04-19 23:13 -34.29264 -71.43510 25557 ft 473 kts 215°
2026-04-19 23:13 -34.32196 -71.45326 25927 ft 474 kts 215°
2026-04-19 23:14 -34.35131 -71.47139 26370 ft 473 kts 215°
2026-04-19 23:14 -34.38056 -71.48942 26827 ft 471 kts 215°
2026-04-19 23:14 -34.40974 -71.50744 27022 ft 470 kts 216°
2026-04-19 23:14 -34.43880 -71.52543 27065 ft 469 kts 216°
2026-04-19 23:15 -34.46785 -71.54345 27064 ft 469 kts 216°
2026-04-19 23:15 -34.49690 -71.56151 27064 ft 469 kts 216°
2026-04-19 23:15 -34.52596 -71.57959 27062 ft 469 kts 216°
2026-04-19 23:15 -34.55499 -71.59765 27062 ft 469 kts 216°
2026-04-19 23:16 -34.58406 -71.61572 27063 ft 469 kts 216°
2026-04-19 23:16 -34.61306 -71.63374 27057 ft 469 kts 216°
2026-04-19 23:16 -34.64209 -71.65180 27053 ft 469 kts 216°
2026-04-19 23:16 -34.67114 -71.66988 27056 ft 469 kts 216°
2026-04-19 23:17 -34.70016 -71.68795 27052 ft 469 kts 216°
2026-04-19 23:17 -34.72920 -71.70607 27046 ft 469 kts 216°
2026-04-19 23:17 -34.75822 -71.72423 27042 ft 469 kts 216°
2026-04-19 23:17 -34.78726 -71.74243 27040 ft 469 kts 216°
2026-04-19 23:18 -34.81628 -71.76063 27038 ft 469 kts 216°
2026-04-19 23:18 -34.84528 -71.77880 27040 ft 469 kts 216°
2026-04-19 23:18 -34.87437 -71.79703 27037 ft 469 kts 216°
2026-04-19 23:18 -34.90339 -71.81521 27036 ft 469 kts 216°
2026-04-19 23:19 -34.93240 -71.83341 27033 ft 469 kts 216°
2026-04-19 23:19 -34.96143 -71.85166 27030 ft 469 kts 216°
2026-04-19 23:19 -34.99049 -71.86995 27041 ft 473 kts 216°
2026-04-19 23:19 -35.01955 -71.88829 27064 ft 477 kts 216°
2026-04-19 23:20 -35.04899 -71.90681 27064 ft 475 kts 216°
2026-04-19 23:20 -35.07831 -71.92521 27064 ft 473 kts 216°
2026-04-19 23:20 -35.10757 -71.94360 27063 ft 473 kts 216°
2026-04-19 23:20 -35.13682 -71.96204 27064 ft 473 kts 216°
2026-04-19 23:21 -35.16608 -71.98053 27062 ft 473 kts 216°
2026-04-19 23:21 -35.19529 -71.99901 27061 ft 473 kts 216°
2026-04-19 23:21 -35.22458 -72.01757 27063 ft 474 kts 217°
2026-04-19 23:21 -35.25382 -72.03611 27060 ft 474 kts 216°
2026-04-19 23:22 -35.28308 -72.05466 27055 ft 474 kts 217°
2026-04-19 23:22 -35.31234 -72.07324 27048 ft 474 kts 216°
2026-04-19 23:22 -35.34168 -72.09188 27046 ft 475 kts 216°
2026-04-19 23:22 -35.37103 -72.11055 27045 ft 474 kts 217°
2026-04-19 23:23 -35.40033 -72.12920 27041 ft 474 kts 216°
2026-04-19 23:23 -35.42965 -72.14787 27042 ft 475 kts 217°
2026-04-19 23:23 -35.45895 -72.16660 26974 ft 476 kts 216°
2026-04-19 23:23 -35.48826 -72.18534 26451 ft 473 kts 216°
2026-04-19 23:24 -35.51741 -72.20390 25734 ft 470 kts 216°
2026-04-19 23:24 -35.54636 -72.22231 25034 ft 467 kts 216°
2026-04-19 23:24 -35.57514 -72.24067 24340 ft 466 kts 216°
2026-04-19 23:24 -35.60390 -72.25909 23645 ft 465 kts 215°
2026-04-19 23:25 -35.63249 -72.27741 22968 ft 462 kts 215°
2026-04-19 23:25 -35.66089 -72.29559 22328 ft 458 kts 214°
2026-04-19 23:25 -35.68923 -72.31378 21705 ft 462 kts 214°
2026-04-19 23:25 -35.71768 -72.33210 21109 ft 461 kts 214°
2026-04-19 23:26 -35.74600 -72.35034 20530 ft 458 kts 214°
2026-04-19 23:26 -35.77419 -72.36851 19969 ft 456 kts 214°
2026-04-19 23:26 -35.80223 -72.38657 19421 ft 453 kts 214°
2026-04-19 23:26 -35.82967 -72.40423 18884 ft 449 kts 214°
2026-04-19 23:27 -35.85722 -72.42193 18321 ft 445 kts 214°
2026-04-19 23:27 -35.88450 -72.43951 17772 ft 440 kts 214°
2026-04-19 23:27 -35.91113 -72.45768 17208 ft 435 kts 216°
2026-04-19 23:27 -35.93702 -72.47665 16662 ft 430 kts 217°
2026-04-19 23:28 -35.96233 -72.49604 16099 ft 426 kts 218°
2026-04-19 23:28 -35.98729 -72.51550 15527 ft 422 kts 218°
2026-04-19 23:28 -36.01203 -72.53470 14952 ft 419 kts 218°
2026-04-19 23:28 -36.03665 -72.55359 14455 ft 412 kts 217°
2026-04-19 23:29 -36.06026 -72.57135 14289 ft 382 kts 217°
2026-04-19 23:29 -36.08217 -72.58762 14158 ft 354 kts 217°
2026-04-19 23:29 -36.10258 -72.60275 14029 ft 330 kts 217°
2026-04-19 23:29 -36.12163 -72.61692 13902 ft 310 kts 218°
2026-04-19 23:30 -36.13957 -72.63032 13721 ft 294 kts 219°
2026-04-19 23:30 -36.15679 -72.64331 13292 ft 288 kts 219°
2026-04-19 23:30 -36.17381 -72.65624 12841 ft 285 kts 219°
2026-04-19 23:30 -36.19059 -72.66901 12351 ft 282 kts 218°
2026-04-19 23:31 -36.20726 -72.68167 11840 ft 280 kts 218°
2026-04-19 23:31 -36.22378 -72.69419 11341 ft 277 kts 217°
2026-04-19 23:31 -36.24018 -72.70664 10835 ft 275 kts 216°
2026-04-19 23:31 -36.25659 -72.71913 10051 ft 282 kts 215°
2026-04-19 23:32 -36.27360 -72.73208 9243 ft 289 kts 213°
2026-04-19 23:32 -36.29072 -72.74505 8599 ft 288 kts 212°
2026-04-19 23:32 -36.30751 -72.75777 7985 ft 285 kts 212°
2026-04-19 23:32 -36.32430 -72.77049 7494 ft 277 kts 212°
2026-04-19 23:33 -36.34013 -72.78249 7349 ft 257 kts 212°
2026-04-19 23:33 -36.35509 -72.79382 7090 ft 246 kts 212°
2026-04-19 23:33 -36.36919 -72.80449 6962 ft 230 kts 212°
2026-04-19 23:33 -36.38240 -72.81449 6807 ft 215 kts 212°
2026-04-19 23:34 -36.39507 -72.82407 6361 ft 212 kts 212°
2026-04-19 23:34 -36.40768 -72.83350 5898 ft 211 kts 211°
2026-04-19 23:34 -36.42024 -72.84287 5408 ft 209 kts 211°
2026-04-19 23:34 -36.43272 -72.85226 4770 ft 210 kts 212°
2026-04-19 23:35 -36.44509 -72.86178 4163 ft 208 kts 212°
2026-04-19 23:35 -36.45728 -72.87109 3651 ft 204 kts 211°
2026-04-19 23:35 -36.46929 -72.88002 3512 ft 200 kts 211°
2026-04-19 23:35 -36.48131 -72.88891 3506 ft 202 kts 211°
2026-04-19 23:36 -36.49335 -72.89784 3507 ft 201 kts 211°
2026-04-19 23:36 -36.50536 -72.90676 3507 ft 200 kts 211°
2026-04-19 23:36 -36.51752 -72.91521 3512 ft 200 kts 205°
2026-04-19 23:36 -36.53002 -72.92234 3511 ft 200 kts 205°
2026-04-19 23:37 -36.54265 -72.92962 3510 ft 200 kts 205°
2026-04-19 23:37 -36.55527 -72.93694 3507 ft 200 kts 205°
2026-04-19 23:37 -36.56713 -72.94382 3491 ft 176 kts 205°
2026-04-19 23:37 -36.57768 -72.94995 3497 ft 166 kts 205°
2026-04-19 23:38 -36.58828 -72.95608 3504 ft 168 kts 205°
2026-04-19 23:38 -36.59892 -72.96225 3505 ft 169 kts 205°
2026-04-19 23:38 -36.60966 -72.96847 3272 ft 169 kts 204°
2026-04-19 23:38 -36.61686 -72.97265 3122 ft 168 kts 205°
2026-04-19 23:39 -36.62743 -72.97877 2904 ft 167 kts 205°
2026-04-19 23:39 -36.63779 -72.98478 2690 ft 166 kts 205°
2026-04-19 23:39 -36.64817 -72.99080 2475 ft 163 kts 205°
2026-04-19 23:39 -36.65846 -72.99676 2272 ft 162 kts 205°
2026-04-19 23:40 -36.66837 -73.00249 2056 ft 153 kts 205°
2026-04-19 23:40 -36.67781 -73.00796 1862 ft 148 kts 205°
2026-04-19 23:40 -36.68706 -73.01334 1683 ft 145 kts 205°
2026-04-19 23:40 -36.69617 -73.01862 1471 ft 144 kts 205°
2026-04-19 23:41 -36.70519 -73.02388 1286 ft 142 kts 206°
2026-04-19 23:41 -36.71412 -73.02902 1087 ft 142 kts 205°
2026-04-19 23:41 -36.72305 -73.03418 894 ft 141 kts 206°
2026-04-19 23:41 -36.73191 -73.03931 696 ft 140 kts 206°
2026-04-19 23:42 -36.74072 -73.04452 474 ft 140 kts 207°
2026-04-19 23:42 -36.74951 -73.04974 304 ft 140 kts 205°
2026-04-19 23:42 -36.75835 -73.05490 160 ft 140 kts 206°
2026-04-19 23:42 -36.76702 -73.05997 66 ft 123 kts 204°
2026-04-19 23:43 -36.77203 -73.06288 62 ft 38 kts 204°
2026-04-19 23:43 -36.77426 -73.06329 58 ft 14 kts 179°
2026-04-19 23:43 -36.77532 -73.06320 60 ft 18 kts 175°
2026-04-19 23:43 -36.77637 -73.06309 61 ft 8 kts 173°
2026-04-19 23:44 -36.77644 -73.06291 57 ft 2 kts 27°
2026-04-19 23:44 -36.77624 -73.06281 61 ft 4 kts 20°
2026-04-19 23:44 -36.77586 -73.06263 60 ft 7 kts 22°
2026-04-19 23:44 -36.77532 -73.06231 61 ft 10 kts 28°
2026-04-19 23:45 -36.77512 -73.06145 53 ft 13 kts 109°
2026-04-19 23:45 -36.77559 -73.06096 53 ft 10 kts 170°
2026-04-19 23:45 -36.77602 -73.06088 53 ft 5 kts 173°
2026-04-19 23:45 -36.77623 -73.06084 60 ft 1 kts 172°
2026-04-19 23:46 -36.77625 -73.06084 54 ft 0 kts 172°